Regional Weather Roundup
Issued by NWS

Home | Current Version | Previous Version | Text Only | Print | Product List | Glossary Off
Versions: 1 2 3 4 5 6 7 8 9 10 11 12 13 14 15 16 17 18 19 20 21 22 23 24 25 26 27 28 29 30 31 32 33 34 35 36 37 38 39 40 41 42 43 44 45 46 47 48 49 50

000
ASUS45 KPSR 250210
RWRAZ

ARIZONA HOURLY REGIONAL WEATHER ROUNDUP
NATIONAL WEATHER SERVICE PHOENIX AZ
700 PM MST SUN MAY 24 2015

NOTE: FAIR INDICATES FEW OR NO CLOUDS BELOW 12,000 FEET WITH NO
SIGNIFICANT WEATHER AND/OR OBSTRUCTIONS TO VISIBILITY.

AZZ001>003-036-250300-
NORTHWEST ARIZONA

CITY           SKY/WX    TMP DP  RH WIND       PRES   REMARKS
BULLHEAD CITY  MOCLDY    86  39  19 S9        29.74S
KINGMAN        CLOUDY    74  36  25 SW13      29.88S
$$

AZZ004>008-015-016-018-250300-
NORTH CENTRAL ARIZONA

CITY           SKY/WX    TMP DP  RH WIND       PRES   REMARKS
GRAND CANYON   MOCLDY    49  46  90 CALM      30.03S
WILLIAMS       CLOUDY    54  39  58 SW8G15    30.10R
PRESCOTT       MOCLDY    64  32  30 SW5       29.97R
FLAGSTAFF      MOCLDY    47  43  86 SW10      30.05S
PAYSON         MOCLDY    63  36  36 SW7       29.99R
PAGE           MOCLDY    65  48  54 N7        29.88R
$$

AZZ009>014-017-250300-
NORTHEAST ARIZONA

CITY           SKY/WX    TMP DP  RH WIND       PRES   REMARKS
WINSLOW        CLOUDY    58  43  57 SW13      29.98R
SAINT JOHNS    MOCLDY    55  40  56 W18G26    29.99R
WINDOW ROCK    PTCLDY    54  39  57 NW7       30.00R
SHOW LOW       CLOUDY    50  34  53 W7        30.05R
$$

AZZ023-250300-
GREATER PHOENIX AREA

CITY           SKY/WX    TMP DP  RH WIND       PRES   REMARKS
PHOENIX        PTCLDY    83  34  17 W12       29.79S
BUCKEYE        CLEAR     81  39  22 W7        29.81S
GLENDALE       PTCLDY    82  34  17 SW6       29.81S
LUKE AFB       CLEAR     82  36  19 SW5       29.79S
DEER VALLEY    CLEAR     79  34  19 SW8       29.81R
SCOTTSDALE     CLEAR     80  35  19 SW8       29.83R
MESA-FALCON    PTCLDY    81  37  21 SW8       29.81S
MESA-GATEWAY   PTCLDY    81  39  22 NW8       29.84R
CHANDLER       PTCLDY    81  39  22 VRB6      29.81R
$$

AZZ027-028-250300-
SOUTHWEST MARICOPA COUNTY AND PINAL COUNTY

CITY           SKY/WX    TMP DP  RH WIND       PRES   REMARKS
CASA GRANDE    CLEAR     81  36  19 NW9       29.81S
GILA BEND      FAIR      82  39  21 W6        29.79R
$$

AZZ503-504-507>509-250300-
SOUTHEAST ARIZONA

CITY           SKY/WX    TMP DP  RH WIND       PRES   REMARKS
TUCSON         PTCLDY    78  31  17 NW13      29.87R
DAVIS-MONTHAN  PTCLDY    77  32  19 NW7       29.85R
RYAN FIELD       N/A     79  34  19 SW8       29.87R
NOGALES        PTCLDY    69  28  21 W8        29.93R
SIERRA VISTA   MOCLDY    61  41  48 E7        29.98S HAZE
DOUGLAS        CLOUDY    69  29  22 NW20      29.93R
SAFFORD        PTCLDY    76  31  19 NW23G29   29.83R
$$

AZZ020-021-025-026-031-250300-
SOUTHWEST ARIZONA

CITY           SKY/WX    TMP DP  RH WIND       PRES   REMARKS
YUMA           CLEAR     84  40  21 S7        29.79R
$$

CAZ031-033-041-043-047-048-061-250300-
SOUTHERN CALIFORNIA

CITY           SKY/WX    TMP DP  RH WIND       PRES   REMARKS
DOWNTOWN L.A.  CLEAR     68  52  56 CALM      29.93F
L.A. AIRPORT   CLEAR     62  53  72 W10       29.95S
SAN DIEGO      PTCLDY    66  53  63 NW7       29.96S
BURBANK        CLEAR     68  50  52 S7        29.93S
ONTARIO        PTCLDY    66  51  58 W6        29.94S
RIVERSIDE      CLEAR     68  52  56 W6        29.94S
PALM SPRINGS   CLEAR     80  48  32 NW13G18   29.80R
EL CENTRO NAS  CLEAR     86  44  23 E8        29.77S
IMPERIAL       CLEAR     86  44  23 SW3       29.76R
BLYTHE         CLEAR     85  37  18 W3        29.77S
NEEDLES        PTCLDY    87  39  18 SW13      29.75S
$$

NVZ020-UTZ003-250300-
SOUTHERN NEVADA-UTAH

CITY           SKY/WX    TMP DP  RH WIND       PRES   REMARKS
LAS VEGAS      MOCLDY    80  43  26 S13       29.75S
SALT LAKE CITY MOCLDY    63  43  48 NW9       29.88R
$$

NMZ009-TXZ055-250300-
NEW MEXICO-WEST TEXAS

CITY           SKY/WX    TMP DP  RH WIND       PRES   REMARKS
ALBUQUERQUE    HVY RAIN  51  41  68 SW30G52   29.95R
EL PASO        PTCLDY    78  15   9 NW7       29.82S
$$


........................KEY........................
SKY/WX - SKY CONDITION/WEATHER
TMP    - TEMPERATURE IN FAHRENHEIT
DP     - DEW POINT IN FAHRENHEIT
RH     - RELATIVE HUMIDITY IN PERCENT
WIND   - DIRECTION AND SPEED IN MILES PER HOUR (MPH)
VRB    - VARIABLE WIND DIRECTION
PRES   - MEAN SEA LEVEL PRESSURE IN INCHES OF MERCURY
         F - FALLING PRESSURE   R - RISING PRESSURE
         S - STEADY PRESSURE
VSB    - VISIBILITY IN MILES
HX     - HEAT INDEX IN FAHRENHEIT
WCI    - WIND CHILL INDEX IN FAHRENHEIT
TC     - TEMPERATURE IN CELSIUS WHICH IS ALSO KNOWN AS
         TEMPERATURE IN CENTIGRADE
AFB    - AIR FORCE BASE
         LUKE AFB IS LUKE AIR FORCE BASE
         DAVIS-MONTHAN IS DAVIS-MONTHAN AIR FORCE BASE
NAS    - NAVAL AIR STATION
         EL CENTRO NAS IS EL CENTRO NAVAL AIR STATION
N/A    - NOT AVAILABLE




USA.gov is the U.S. government's official web portal to all federal, state and local government web resources and services.